Flag for U.S.A. Weather past 2 weeks in Beaumont, Texas, U.S.A.

Now
91 °F

Sunny.


Feels Like: 95 °F
Forecast: 70 / 98 °F
Wind: 12 mph from Northeast

Location: Jefferson County Airport

Current Time: Aug 1, 2015 at 11:18:28 AM

Latest Report: Aug 1, 2015 at 10:53 AM


Visibility: 10 mi

Pressure: 29.97 "Hg

Humidity: 47%

Dew point: 68 °F

Location of BeaumontLocation

Historic Weather in Beaumont — Graph

°F

Beaumont temperature yesterday

Maximum temperature yesterday: 98 °F (at 3:53 PM)
Minimum temperature yesterday: 78 °F (at 3:53 AM)
Average temperature yesterday: 87 °F

Past Weeks' High & Low Weather Summary

 TemperatureHumidityPressure
High101 °F (Jul 30, 1:53 PM)100% (Jul 25, 6:53 AM)30.07 "Hg (Jul 25, 6:53 AM)
Low74 °F (Aug 1, 5:53 AM)32% (Jul 31, 3:53 PM)29.87 "Hg (Jul 21, 6:53 PM)
Average85 °F75%29.96 "Hg
* Reported Jul 17 9:53 AM — Aug 1 9:53 AM, Beaumont, Weather by CustomWeather, © 2015

Note: Actual official high and low records may vary slightly from our data, if they occured in-between our weather recording intervals... More about our weather records

Advertising

Beaumont weather history for previous 24 hours

 ConditionsComfort  
Time TempWeatherWind HumidityBarometerVisibility
9:53 AM
Sat, Aug 1
88 °FSunny.13 mph50%29.98 "Hg10 mi
8:53 AM83 °FSunny.10 mph61%29.97 "Hg10 mi
7:53 AM78 °FSunny.13 mph69%29.95 "Hg10 mi
6:53 AM75 °FClear.10 mph74%29.93 "Hg10 mi
5:53 AM74 °FClear.7 mph76%29.93 "Hg10 mi
4:53 AM77 °FClear.10 mph69%29.92 "Hg10 mi
3:53 AM77 °FClear.7 mph66%29.92 "Hg10 mi
2:53 AM75 °FClear.7 mph74%29.93 "Hg10 mi
1:53 AM77 °FClear.3 mph71%29.94 "Hg10 mi
12:53 AM79 °FClear.6 mph67%29.95 "Hg10 mi
11:53 PM
Fri, Jul 31
79 °FClear.7 mph67%29.97 "Hg10 mi
10:53 PM82 °FClear.7 mph60%29.97 "Hg10 mi
9:53 PM84 °FClear.6 mph57%29.96 "Hg10 mi
8:53 PM86 °FSunny.7 mph53%29.93 "Hg10 mi
7:53 PM91 °FSunny.9 mph42%29.91 "Hg10 mi
6:53 PM94 °FSunny.12 mph38%29.90 "Hg10 mi
5:53 PM95 °FSunny.13 mph37%29.90 "Hg10 mi
4:53 PM98 °FSunny.13 mph32%29.91 "Hg10 mi
3:53 PM98 °FSunny.9 mph32%29.93 "Hg10 mi
2:53 PM97 °FSunny.15 mph36%29.94 "Hg10 mi
1:53 PM97 °FSunny.13 mph43%29.96 "Hg10 mi
12:53 PM95 °FSunny.7 mph52%29.98 "Hg10 mi
11:53 AM93 °FPassing clouds.8 mph56%29.99 "Hg10 mi
Weather by CustomWeather, © 2015

See weather overviewHow to use our weather pages